[Iaude] MPEC M107: 2024 MC1 [a=1.27,e=0.28,i=5.3,H=24.0]

mpec at cfa.harvard.edu mpec at cfa.harvard.edu
Fri Jun 28 14:32:44 EDT 2024


M.P.E.C. 2024-M107                                Issued 2024 June 28, 18:22 UT

     The Minor Planet Electronic Circulars contain information on unusual
         minor planets, routine data on comets and natural satellites,
         and occasional editorial announcements.  They are published
    on behalf of Division F of the International Astronomical Union by the
          Minor Planet Center, Smithsonian Astrophysical Observatory,
                          Cambridge, MA 02138, U.S.A.
			  
             Prepared using the Tamkin Foundation Computer Network

                              MPC at CFA.HARVARD.EDU
            URL https://www.minorplanetcenter.net/    ISSN 1523-6714

                                    2024 MC1                                    


Observations:
     K24M01C* C2024 06 26.32319616 14 40.215-19 06 04.51         20.73wXEM107F52
     K24M01C  C2024 06 26.33108616 14 38.342-19 05 37.35         20.70wXEM107F52
     K24M01C  C2024 06 26.33899116 14 36.460-19 05 09.81         20.72wXEM107F52
     K24M01C  C2024 06 26.34689916 14 34.587-19 04 42.37         21.05wXEM107F52
     K24M01C  C2024 06 26.46053216 14 07.838-18 58 00.47         20.91GVEM107F52
     K24M01C  C2024 06 26.46118516 14 07.692-18 57 57.96         20.31GVEM107F52
     K24M01C |C2024 06 27.06470816 12 06.940-18 21 14.20         20.5 GVEM107807
     K24M01C |C2024 06 27.07634016 12 04.170-18 20 33.20         20.5 GVEM107807
     K24M01C |C2024 06 27.08196016 12 02.860-18 20 12.40         20.5 GVEM107807
     K24M01C KB2024 06 27.97981 16 08 51.84 -17 26 04.6          20.7 VqEM107Y66
     K24M01C KB2024 06 27.98044 16 08 51.70 -17 26 02.1          21.1 VqEM107Y66
     K24M01C KB2024 06 27.98108 16 08 51.56 -17 25 59.9          20.4 VqEM107Y66
     K24M01C KB2024 06 27.98165 16 08 51.35 -17 25 57.8          20.9 VqEM107Y66
     K24M01C KB2024 06 27.98216 16 08 51.27 -17 25 55.5          20.4 VqEM107Y66
     K24M01C KB2024 06 27.98267 16 08 51.15 -17 25 54.0          20.6 VqEM107Y66
     K24M01C KC2024 06 28.21814 16 08 01.74 -17 11 01.8          20.8 RVEM107691
     K24M01C KC2024 06 28.22140 16 08 01.00 -17 10 48.8          20.5 RVEM107691
     K24M01C KC2024 06 28.22467 16 08 00.15 -17 10 36.0          21.0 RVEM107691

Observer details:
691 Steward Observatory, Kitt Peak-Spacewatch.  Observer R. A. Mastaler.
    0.9-m f/3 reflector + CCD.
807 Cerro Tololo Observatory, La Serena.  Observers T. Linder, R. Holmes.
    0.61-m f/6.8 Ritchey-Chretien + CCD.
F52 Pan-STARRS 2, Haleakala.  Observers J. Herman, T. Lowe, P. Minguez, A.
    Schultz, I. Smith.  Measurers K. Chambers, T. de Boer, J. Fairlamb, H.
    Gao, M. Huber, C.-C. Lin, E. Magnier, Y. Ramanjooloo, R. Wainscoat, R.
    Weryk.  1.8-m Ritchey-Chretien + CCD.
Y66 Two-Meter Twin Telescope, TTT2, Teide.  Observer M. R. Alarcon.
    Measurer M. Serra-Ricart.  0.80-m f/4.38 reflector + CMO.

Orbital elements:
2024 MC1                                                 Earth MOID = 0.0372 AU
Epoch 2024 Mar. 31.0 TT = JDT 2460400.5                 Veres                   
M 249.33292              (2000.0)            P               Q                  
n   0.68928097     Peri.   83.54840     +0.98850731     +0.11977687             
a   1.2692247      Node   269.54474     -0.14675841     +0.90670480             
e   0.2834877      Incl.    5.29221     +0.03626662     +0.40440068             
P   1.43           H   24.08          G   0.15           U   8                  
Residuals in seconds of arc
240626 F52  0.0   0.0     240627 807  0.1-  0.2+    240627 Y66  0.8-  0.1-
240626 F52  0.0   0.1-    240627 807  0.2-  0.4-    240627 Y66  0.1-  0.3+
240626 F52  0.1-  0.1+    240627 807  0.3+  0.2+    240627 Y66  0.1-  0.2-
240626 F52  0.0   0.0     240627 Y66  0.2-  0.1+    240628 691  0.3-  0.4-
240626 F52  0.2-  0.0     240627 Y66  0.0   0.2+    240628 691  0.5+  0.1+
240626 F52  0.1-  0.1+    240627 Y66  0.2+  0.0     240628 691  0.2-  0.3+

Ephemeris:
2024 MC1                 a,e,i = 1.27, 0.28, 5                   q = 0.9094
Date    TT    R. A. (2000) Decl.     Delta      r    Elong.  Phase     V
2024 05 29    17 20 12.5 -32 14 42   0.2398  1.2454   163.6    13.3    22.2
...
2024 06 13    16 53 45.2 -28 08 21   0.1645  1.1784   171.3     7.5    21.1
...
2024 06 21    16 31 52.9 -23 33 01   0.1332  1.1423   160.0    17.7    20.9
...
2024 06 27    16 12 19.4 -18 25 27   0.1137  1.1154   148.9    28.1    20.8
2024 06 28    16 08 48.6 -17 23 55   0.1107  1.1110   146.9    30.0    20.8
2024 06 29    16 05 13.5 -16 19 10   0.1079  1.1065   144.8    32.0    20.8
...
2024 07 05    15 42 12.7 -08 37 44   0.09287 1.0802   131.3    45.0    20.8
...
2024 07 13    15 06 52.7 +05 08 45   0.07853 1.0464   110.3    65.7    21.0
...
2024 07 28    13 28 49.2 +37 51 29   0.07288 0.9889    66.7   109.4    22.5

M. P. C. Staff               (C) Copyright 2024 MPC           M.P.E.C. 2024-M107





More information about the Iaude mailing list